Weather History for KFET - April, 2013

Change the Weather History Date:

Tuesday, April 16, 2013

  Actual Average Record
Temperature  
Mean Temperature 44 °F -  
Max Temperature 53 °F 65 °F 89 °F (1964)
Min Temperature 35 °F 41 °F 24 °F (1951)
Degree Days  
Heating Degree Days 22    
Moisture  
Dew Point 30 °F    
Average Humidity 61    
Maximum Humidity 82    
Minimum Humidity 35    
Precipitation  
Precipitation 0.03 in - - ()
Sea Level Pressure  
Sea Level Pressure 30.17 in    
Wind  
Wind Speed 7 mph (NNE)    
Max Wind Speed 16 mph    
Max Gust Speed 21 mph    
Visibility 10 miles    
Events Thunderstorm    
Averages and records for this station are not official NWS values.
T = Trace of Precipitation, MM = Missing Value Source: NWS Daily Summary

Daily Weather History Graph

Daily Weather History Graph

Search for Another Location

Airport or City:

Trip Planner

Search our weather history database for the weather conditions in past years. The results will help you decide how hot, cold, wet, or windy it might be!

Date:

Astronomy

Apr. 16, 2013 Rise Set
Actual Time 6:44 AM CDT 8:07 PM CDT
Civil Twilight 6:15 AM CDT 8:36 PM CDT
Nautical Twilight 5:40 AM CDT 9:11 PM CDT
Astronomical Twilight 5:04 AM CDT 9:48 PM CDT
Moon 11:02 AM CDT (4/16) 1:07 AM CDT (4/16)
Length of Visible Light 14h 21m
Length of Day
13h 23m
Waxing Crescent, 33% of the Moon is Illuminated
Apr 16
Waxing Crescent
Apr 18
First Quarter
Apr 25
Full
May 2
Last Quarter
May 9
New

Hourly Weather History & Observations

Time (CDT) Temp. Windchill Dew Point Humidity Pressure Visibility Wind Dir Wind Speed Gust Speed Precip Events Conditions
12:15 AM 38.8 °F 34.6 °F 31.1 °F 74% 30.10 in 10.0 mi North 5.8 mph - N/A   Overcast
12:35 AM 38.7 °F 33.6 °F 31.6 °F 76% 30.10 in 10.0 mi North 6.9 mph - N/A   Overcast
12:55 AM 38.3 °F 33.2 °F 31.3 °F 76% 30.08 in 10.0 mi North 6.9 mph - N/A   Overcast
1:15 AM 38.3 °F 34.8 °F 31.1 °F 75% 30.10 in 10.0 mi North 4.6 mph - N/A   Overcast
1:35 AM 38.3 °F 33.2 °F 30.9 °F 75% 30.11 in 10.0 mi North 6.9 mph - N/A   Overcast
1:55 AM 37.8 °F 32.5 °F 31.1 °F 77% 30.11 in 10.0 mi NNW 6.9 mph - N/A   Overcast
2:15 AM 37.0 °F 31.0 °F 31.5 °F 80% 30.11 in 10.0 mi NNW 8.1 mph - N/A   Overcast
2:35 AM 36.5 °F 29.7 °F 30.7 °F 80% 30.09 in 10.0 mi North 9.2 mph 16.1 mph N/A   Mostly Cloudy
2:55 AM 35.6 °F 29.9 °F 30.7 °F 82% 30.09 in 10.0 mi North 6.9 mph - N/A   Scattered Clouds
3:15 AM 35.6 °F 29.9 °F 30.2 °F 81% 30.11 in 10.0 mi NNW 6.9 mph - N/A   Mostly Cloudy
3:35 AM 35.6 °F 31.7 °F 29.8 °F 80% 30.12 in 10.0 mi North 4.6 mph - N/A   Mostly Cloudy
3:55 AM 35.6 °F 31.7 °F 29.8 °F 80% 30.14 in 10.0 mi NNW 4.6 mph - N/A   Mostly Cloudy
4:15 AM 35.6 °F 31.7 °F 29.7 °F 79% 30.13 in 10.0 mi North 4.6 mph - N/A   Mostly Cloudy
4:35 AM 35.6 °F 32.8 °F 29.3 °F 78% 30.15 in 10.0 mi NNW 3.5 mph - N/A   Mostly Cloudy
4:55 AM 35.4 °F 32.6 °F 30.0 °F 81% 30.16 in 10.0 mi NNW 3.5 mph - N/A   Overcast
5:15 AM 35.2 °F 32.4 °F 30.0 °F 81% 30.16 in 10.0 mi NNW 3.5 mph - N/A   Overcast
5:35 AM 35.2 °F 32.4 °F 30.2 °F 82% 30.16 in 10.0 mi NNW 3.5 mph - N/A   Overcast
5:55 AM 35.2 °F 30.3 °F 29.8 °F 81% 30.17 in 10.0 mi NW 5.8 mph - N/A   Mostly Cloudy
6:15 AM 35.2 °F 32.4 °F 29.7 °F 80% 30.17 in 10.0 mi North 3.5 mph - N/A   Mostly Cloudy
6:35 AM 35.1 °F 31.0 °F 30.0 °F 82% 30.15 in 10.0 mi North 4.6 mph - N/A   Scattered Clouds
7:15 AM 35.1 °F 32.2 °F 30.0 °F 82% 30.18 in 10.0 mi North 3.5 mph - N/A   Mostly Cloudy
7:35 AM 35.2 °F 31.2 °F 30.0 °F 81% 30.19 in 10.0 mi North 4.6 mph - N/A   Overcast
7:55 AM 35.6 °F - 30.2 °F 81% 30.20 in 10.0 mi Calm Calm - N/A   Mostly Cloudy
8:15 AM 35.6 °F - 30.2 °F 81% 30.21 in 10.0 mi Calm Calm - N/A   Mostly Cloudy
8:35 AM 36.0 °F 33.3 °F 29.7 °F 78% 30.22 in 10.0 mi North 3.5 mph - N/A   Mostly Cloudy
8:55 AM 36.3 °F 32.5 °F 29.8 °F 77% 30.22 in 10.0 mi NNE 4.6 mph - N/A   Mostly Cloudy
9:15 AM 36.9 °F 33.1 °F 30.2 °F 77% 30.23 in 10.0 mi North 4.6 mph - N/A   Mostly Cloudy
9:35 AM 37.4 °F 33.8 °F 29.7 °F 74% 30.24 in 10.0 mi North 4.6 mph - N/A   Mostly Cloudy
9:55 AM 37.8 °F 34.2 °F 29.8 °F 73% 30.25 in 10.0 mi North 4.6 mph - N/A   Mostly Cloudy
10:15 AM 38.7 °F 35.2 °F 29.8 °F 71% 30.24 in 10.0 mi North 4.6 mph - N/A   Overcast
10:35 AM 39.6 °F 34.0 °F 28.9 °F 66% 30.25 in 10.0 mi North 8.1 mph - N/A   Overcast
10:55 AM 40.3 °F 36.3 °F 28.6 °F 63% 30.25 in 10.0 mi North 5.8 mph - N/A   Overcast
11:15 AM 41.5 °F 36.4 °F 29.5 °F 62% 30.25 in 10.0 mi NE 8.1 mph - N/A   Overcast
11:35 AM 43.0 °F 37.7 °F 29.7 °F 59% 30.24 in 10.0 mi NE 9.2 mph - N/A   Overcast
11:55 AM 43.3 °F 37.2 °F 29.8 °F 59% 30.24 in 10.0 mi NNE 11.5 mph 17.3 mph N/A   Mostly Cloudy
12:15 PM 44.1 °F 39.0 °F 29.8 °F 57% 30.23 in 10.0 mi NE 9.2 mph - N/A   Mostly Cloudy
12:35 PM 44.2 °F 40.3 °F 29.5 °F 56% 30.23 in 10.0 mi NNE 6.9 mph - N/A   Overcast
12:55 PM 45.7 °F 42.0 °F 29.1 °F 52% 30.22 in 10.0 mi NNE 6.9 mph - N/A   Mostly Cloudy
1:15 PM 46.4 °F 41.5 °F 30.6 °F 54% 30.21 in 10.0 mi ENE 10.4 mph 17.3 mph N/A   Scattered Clouds
1:35 PM 46.6 °F - 31.6 °F 56% 30.20 in 10.0 mi NE 9.2 mph 18.4 mph N/A   Scattered Clouds
1:55 PM 46.9 °F - 30.6 °F 53% 30.20 in 10.0 mi NE 12.7 mph 17.3 mph N/A   Scattered Clouds
2:15 PM 52.7 °F - 31.6 °F 45% 30.19 in 10.0 mi NNE 5.8 mph 9.2 mph N/A   Mostly Cloudy
2:35 PM 48.7 °F - 31.1 °F 51% 30.19 in 10.0 mi NE 8.1 mph 16.1 mph 0.03 in Thunderstorm Thunderstorm
2:55 PM 49.3 °F - 31.3 °F 50% 30.18 in 10.0 mi NNE 10.4 mph - 0.03 in   Overcast
3:15 PM 49.3 °F - 27.7 °F 43% 30.18 in 10.0 mi NNE 9.2 mph 17.3 mph N/A   Mostly Cloudy
3:35 PM 49.6 °F - 27.9 °F 43% 30.16 in 10.0 mi ENE 12.7 mph 19.6 mph N/A   Mostly Cloudy
3:55 PM 51.4 °F - 27.0 °F 39% 30.16 in 10.0 mi ENE 12.7 mph 20.7 mph N/A   Mostly Cloudy
4:15 PM 51.6 °F - 26.1 °F 37% 30.15 in 10.0 mi ENE 10.4 mph 19.6 mph N/A   Scattered Clouds
4:35 PM 52.7 °F - 26.1 °F 36% 30.14 in 10.0 mi NNE 11.5 mph 18.4 mph N/A   Scattered Clouds
4:55 PM 52.7 °F - 25.5 °F 35% 30.14 in 10.0 mi ENE 12.7 mph 18.4 mph N/A   Mostly Cloudy
5:15 PM 52.0 °F - 25.5 °F 36% 30.14 in 10.0 mi ENE 10.4 mph 17.3 mph N/A   Mostly Cloudy
5:35 PM 51.3 °F - 24.4 °F 35% 30.14 in 10.0 mi NE 10.4 mph 17.3 mph N/A   Overcast
5:55 PM 51.1 °F - 25.5 °F 37% 30.13 in 10.0 mi NE 10.4 mph - N/A   Overcast
6:15 PM 51.3 °F - 25.9 °F 37% 30.13 in 10.0 mi ENE 9.2 mph - N/A   Overcast
6:35 PM 51.1 °F - 25.7 °F 37% 30.13 in 10.0 mi ENE 15.0 mph - N/A   Overcast
6:55 PM 51.1 °F - 27.3 °F 40% 30.12 in 10.0 mi ENE 10.4 mph 17.3 mph N/A   Overcast
7:15 PM 50.5 °F - 28.0 °F 42% 30.13 in 10.0 mi East 11.5 mph - N/A   Overcast
7:35 PM 50.0 °F - 28.4 °F 43% 30.13 in 10.0 mi ENE 15.0 mph 18.4 mph N/A   Overcast
7:55 PM 49.5 °F - 28.8 °F 45% 30.14 in 10.0 mi East 15.0 mph 18.4 mph N/A   Overcast
8:15 PM 49.1 °F - 29.7 °F 47% 30.14 in 10.0 mi ENE 12.7 mph - N/A   Overcast
8:35 PM 48.9 °F - 29.8 °F 48% 30.15 in 10.0 mi ENE 10.4 mph - N/A   Overcast
8:55 PM 48.6 °F - 29.8 °F 48% 30.16 in 10.0 mi ENE 11.5 mph - N/A   Overcast
9:15 PM 48.2 °F - 30.6 °F 51% 30.16 in 10.0 mi ENE 12.7 mph 19.6 mph N/A   Overcast
9:35 PM 48.0 °F - 31.5 °F 53% 30.16 in 10.0 mi East 12.7 mph - N/A   Overcast
9:55 PM 47.8 °F - 31.1 °F 52% 30.16 in 10.0 mi ENE 16.1 mph 20.7 mph N/A   Overcast
10:15 PM 47.5 °F - 31.8 °F 55% 30.16 in 10.0 mi ENE 10.4 mph 18.4 mph N/A   Overcast
10:35 PM 47.3 °F - 32.0 °F 55% 30.17 in 10.0 mi ENE 10.4 mph 16.1 mph N/A   Overcast
10:55 PM 47.1 °F - 32.0 °F 56% 30.16 in 10.0 mi ENE 12.7 mph - N/A   Overcast
11:15 PM 46.9 °F - 32.2 °F 57% 30.16 in 10.0 mi ENE 9.2 mph - N/A   Overcast
11:35 PM 46.8 °F - 32.2 °F 57% 30.16 in 10.0 mi ENE 10.4 mph - N/A   Overcast
11:55 PM 46.6 °F - 32.5 °F 58% 30.16 in 10.0 mi ENE 10.4 mph - N/A   Overcast